Flag for Germany Weather past 2 weeks in Oberhausen, North Rhine-Westphalia, Germany

Now
41 °F

Snow showers. Partly sunny.


Feels Like: 33 °F
Forecast: 41 / 52 °F
Wind: 16 mph from Northwest

Location: Duesseldorf

Current Time: Mar 30, 2015 at 1:22:25 PM

Latest Report: Mar 30, 2015 at 12:50 PM


Visibility: N/A

Pressure: 29.68 "Hg

Humidity: 81%

Dew point: 36 °F

Location of OberhausenLocation

Historic Weather in Oberhausen — Graph

°F

Oberhausen temperature yesterday

Maximum temperature yesterday: 54 °F (at 12:20 AM)
Minimum temperature yesterday: 45 °F (at 10:20 PM)
Average temperature yesterday: 51 °F

Past Weeks' High & Low Weather Summary

 TemperatureHumidityPressure
High64 °F (Mar 17, 1:50 PM)100% (Mar 20, 2:50 AM)30.39 "Hg (Mar 20, 2:50 AM)
Low30 °F (Mar 20, 2:50 AM)32% (Mar 17, 4:20 PM)29.27 "Hg (Mar 29, 7:50 PM)
Average45 °F78%30.02 "Hg
* Reported Mar 15 11:20 AM — Mar 30 12:20 PM, Oberhausen, Weather by CustomWeather, © 2015

Note: Actual official high and low records may vary slightly from our data, if they occured in-between our weather recording intervals... More about our weather records

Advertising

Oberhausen weather history for previous 24 hours

 ConditionsComfort  
Time TempWeatherWind HumidityBarometerVisibility
12:20 PM
Mon, Mar 30
45 °FSprinkles. Partly sunny.17 mph71%29.68 "HgN/A
11:50 AM48 °FSprinkles. Broken clouds.21 mph54%29.65 "HgN/A
11:20 AM46 °FScattered clouds.17 mph53%29.65 "HgN/A
10:50 AM46 °FScattered clouds.21 mph53%29.62 "HgN/A
10:20 AM46 °FScattered clouds.24 mph62%29.62 "HgN/A
9:50 AM45 °FScattered clouds.24 mph66%29.59 "HgN/A
9:20 AM45 °FSprinkles. Partly sunny.16 mph76%29.56 "HgN/A
8:50 AM45 °FScattered clouds.15 mph76%29.56 "HgN/A
8:20 AM45 °FBroken clouds.14 mph76%29.53 "HgN/A
7:50 AM43 °FPassing clouds.13 mph76%29.53 "HgN/A
7:20 AM43 °FPassing clouds.15 mph76%29.53 "HgN/A
6:50 AM45 °FPassing clouds.14 mph76%29.50 "HgN/A
6:20 AM45 °FPassing clouds.14 mph76%29.50 "HgN/A
5:50 AM45 °FPassing clouds.15 mph76%29.47 "HgN/A
5:20 AM45 °FPassing clouds.13 mph76%29.47 "HgN/A
4:50 AM45 °FPassing clouds.15 mph76%29.47 "HgN/A
4:20 AM45 °FPassing clouds.16 mph81%29.45 "HgN/A
3:50 AM45 °FPassing clouds.16 mph81%29.45 "HgN/A
3:20 AM45 °FScattered showers. Partly cloudy.23 mph87%29.45 "HgN/A
2:50 AM46 °FSprinkles. Partly cloudy.22 mph87%29.42 "HgN/A
2:20 AM46 °FLight rain. Partly cloudy.14 mph82%29.42 "HgN/A
1:50 AM46 °FLight rain. Passing clouds.10 mph76%29.42 "HgN/A
1:20 AM46 °FPartly cloudy.14 mph76%29.45 "HgN/A
12:50 AM46 °FClear.12 mph76%29.42 "Hg10 mi
12:20 AM46 °FClear.12 mph82%29.42 "Hg10 mi
11:50 PM
Sun, Mar 29
46 °FClear.14 mph82%29.42 "Hg10 mi
11:20 PM46 °FPassing clouds.12 mph82%29.42 "HgN/A
10:50 PM46 °FScattered showers. Passing clouds.14 mph82%29.42 "HgN/A
10:20 PM45 °FScattered showers. Partly cloudy.18 mph93%29.39 "HgN/A
9:50 PM46 °FRain showers. Passing clouds.20 mph87%29.36 "Hg6 mi
9:20 PM48 °FSprinkles. Partly cloudy.22 mph87%29.33 "HgN/A
8:50 PM48 °FScattered showers. Partly sunny.18 mph87%29.33 "HgN/A
8:20 PM52 °FThunderstorms. Broken clouds.30 mph88%29.27 "Hg6 mi
7:50 PM54 °FLight rain. Broken clouds.26 mph82%29.27 "HgN/A
7:20 PM52 °FLight rain. Broken clouds.30 mph88%29.30 "HgN/A
6:50 PM54 °FLight rain. Partly sunny.30 mph82%29.30 "HgN/A
6:20 PM52 °FDrizzle. Partly sunny.29 mph94%29.30 "Hg6 mi
5:50 PM52 °FDrizzle. Partly sunny.26 mph94%29.30 "Hg5 mi
5:20 PM52 °FRain. Partly sunny.26 mph94%29.33 "Hg4 mi
4:50 PM52 °FRain. Broken clouds.23 mph94%29.33 "HgN/A
4:20 PM52 °FRain. Broken clouds.24 mph94%29.36 "HgN/A
3:50 PM52 °FLight rain. Broken clouds.22 mph88%29.39 "HgN/A
3:20 PM52 °FLight rain. Broken clouds.20 mph88%29.42 "HgN/A
2:20 PM52 °FLight rain. Broken clouds.22 mph88%29.47 "HgN/A
1:50 PM50 °FRain. Partly sunny.17 mph94%29.50 "HgN/A
1:20 PM50 °FLight rain. Partly sunny.17 mph94%29.53 "Hg6 mi
Weather by CustomWeather, © 2015

See weather overviewHow to use our weather pages